TimeEDT,TemperatureF,Dew PointF,Humidity,Sea Level PressureIn,VisibilityMPH,Wind Direction,Wind SpeedMPH,Gust SpeedMPH,PrecipitationIn,Events,Conditions,WindDirDegrees,DateUTC
12:54 AM,75.9,71.1,85,29.80,10.0,South,4.6,-,N/A,,Scattered Clouds,190,2013-09-03 04:54:00
1:54 AM,73.9,71.1,91,29.79,9.0,SSW,4.6,-,N/A,,Clear,200,2013-09-03 05:54:00
2:54 AM,77.0,71.1,82,29.79,10.0,WSW,5.8,-,N/A,,Clear,250,2013-09-03 06:54:00
3:54 AM,73.9,71.1,91,29.78,8.0,SSE,4.6,-,N/A,,Clear,160,2013-09-03 07:54:00
4:54 AM,73.0,70.0,90,29.78,7.0,SSW,4.6,-,N/A,,Clear,200,2013-09-03 08:54:00
5:54 AM,75.0,71.1,87,29.80,6.0,WSW,5.8,-,N/A,,Scattered Clouds,240,2013-09-03 09:54:00
6:54 AM,73.9,71.1,91,29.81,6.0,WNW,3.5,-,N/A,,Mostly Cloudy,300,2013-09-03 10:54:00
7:54 AM,77.0,72.0,84,29.83,6.0,NW,5.8,-,N/A,,Haze,320,2013-09-03 11:54:00
8:54 AM,80.1,70.0,71,29.85,10.0,North,8.1,-,N/A,,Scattered Clouds,360,2013-09-03 12:54:00
9:54 AM,82.0,68.0,62,29.87,10.0,North,12.7,-,N/A,,Scattered Clouds,360,2013-09-03 13:54:00
10:54 AM,84.0,66.9,56,29.88,10.0,North,9.2,-,N/A,,Scattered Clouds,10,2013-09-03 14:54:00
11:54 AM,84.9,64.9,51,29.88,10.0,North,5.8,-,N/A,,Mostly Cloudy,10,2013-09-03 15:54:00
12:54 PM,84.9,66.9,55,29.88,10.0,NNE,6.9,-,N/A,,Overcast,20,2013-09-03 16:54:00
1:54 PM,86.0,66.9,53,29.87,10.0,NNW,5.8,-,N/A,,Mostly Cloudy,340,2013-09-03 17:54:00
2:54 PM,88.0,66.9,49,29.84,10.0,North,4.6,-,N/A,,Mostly Cloudy,350,2013-09-03 18:54:00
3:54 PM,88.0,66.0,48,29.82,10.0,North,8.1,-,N/A,,Mostly Cloudy,350,2013-09-03 19:54:00
4:54 PM,84.9,66.0,53,29.84,10.0,NNE,8.1,-,N/A,,Mostly Cloudy,20,2013-09-03 20:54:00
5:54 PM,82.9,66.0,56,29.86,10.0,NE,5.8,-,N/A,,Mostly Cloudy,50,2013-09-03 21:54:00
6:54 PM,82.9,68.0,60,29.87,10.0,East,3.5,-,N/A,,Mostly Cloudy,80,2013-09-03 22:54:00
7:54 PM,79.0,68.0,69,29.88,10.0,Calm,Calm,-,N/A,,Mostly Cloudy,0,2013-09-03 23:54:00
8:54 PM,77.0,68.0,74,29.91,10.0,Calm,Calm,-,N/A,,Clear,0,2013-09-04 00:54:00
9:54 PM,75.0,69.1,82,29.93,10.0,Calm,Calm,-,N/A,,Partly Cloudy,0,2013-09-04 01:54:00
10:54 PM,73.0,68.0,84,29.94,10.0,Calm,Calm,-,N/A,,Scattered Clouds,0,2013-09-04 02:54:00
11:54 PM,73.9,66.9,79,29.96,10.0,North,4.6,-,N/A,,Scattered Clouds,10,2013-09-04 03:54:00